User: anonymous   Login
Location: Columbia
(38.9520°N, 92.3340°W)
Time: 08:50:47
(UTC-05:00)
Language:

Cosmos 158 Rocket - Orbit

View from above orbital plane
View from above orbital plane
View from above satellite
View from above satellite

Ground track
Ground track

The orbit data is extracted from the following two-line orbital elements,

1  2802U 67045B   17177.36322306 +.00000071 +00000-0 +28600-4 0  9990
2  2802 074.0107 149.6093 0067172 202.8625 156.9539 14.43647534630304
Epoch (UTC): 26 June 2017 08:43:02
Eccentricity: 0.0067172
inclination: 74.0107°
perigee height: 698 km
apogee height: 794 km
right ascension of ascending node: 149.6093°
argument of perigee: 202.8625°
revolutions per day: 14.43647534
mean anomaly at epoch: 156.9539°
orbit number at epoch: 63030

The dashed part of the orbit path shows where the satellite is in the earth's shadow,  

DLR